Lid_Strength_Index
12 12 12 12 12 12 12 13 13 13 13 13 12 11 11 11 11 10 10 10 10 9
13 13 13 13 13 14 13 14 13 13 13 13 12 12 11 11 11 10 10 10 10 10
14 14 14 14 15 14 14 14 14 14 13 13 12 11 11 11 11 11 11 11 10 10
16 15 15 15 15 15 14 14 14 14 13 13 12 11 11 12 12 12 11 11 11 11
16 16 16 15 15 14 15 14 14 14 13 12 12 12 12 12 12 12 12 11 12 12
16 16 16 15 15 15 15 14 14 13 13 13 12 12 11 11 11 12 12 12 13 13
15 15 16 15 15 15 15 14 14 14 14 13 12 11 11 12 12 13 13 13 13 13
16 15 15 15 15 14 14 14 14 14 14 13 12 12 12 12 13 13 13 13 13 13
15 15 15 15 15 15 15 15 14 14 14 14 13 13 12 13 14 14 14 14 14 14
15 15 15 15 15 16 15 15 15 15 15 15 14 13 13 13 14 14 14 14 15 15
15 16 16 16 16 16 16 15 15 15 15 16 16 14 14 14 14 14 14 14 15 15
16 16 16 16 17 16 16 16 16 16 16 16 16 15 14 14 14 15 15 15 15 16
16 16 16 17 17 17 17 17 17 17 16 17 17 16 15 14 15 16 16 16 16 16
17 17 17 17 17 17 17 18 18 18 17 17 17 17 16 15 16 16 17 17 17 17